Content
SEND FEEDBACK

Daily
Averages
Monthly
Summary
United States of America

MERIZO, GUAM


Home > North America > United States > Guam
Elevation: 3 meters     Latitude: 13 14N     Longitude: 144 39E

WEATHER
 
SELECT A DAY
Number of Records: 350,199;   Date Range: 1/1/95 - 9/29/14
 
SHARE

PRINT THIS DATA

[ ← Previous Day ]
WEATHER ALMANAC - 24 JANUARY, 2013
[ Next Day → ]
[ °F ]   °C
Weather ElementAverageHighLow
Temperature25.5 °C30 °C (11:55 am)23.5 °C (6:55 am)
Dewpoint19.3 °C20.1 °C (1:55 am)17.4 °C (7:55 pm)
Humidity68.8 %80 % (2:55 am)52 % (1:55 pm)
Barometer1011.2 hPa1013.2 hPa (8:55 am)1009.5 hPa (2:55 pm)
Wind Speed16.1 km/h20.4 km/h (9:55 am)
Weather ElementAverage
Visibility16.1 km
Wind DirectionNE (41.5 °)

Weather ElementTotal
Precipitation---
Cooling Degree Days8.4 (Base 18.3)
Growing Degree Days16.8 (Base 10)
Averaged from 27 records on 24 January, 2013
WEATHER CONDITIONS BREAKOUT
WIND DIRECTION BREAKOUT
WEATHER BY HOUR - 24 JANUARY, 2013
[ °F ]   °C
Local TimeTemperatureDewpointHumidityBarometerVisibilityWind DirectionWind SpeedGust SpeedPrecipitationEventsConditions
1:55 AM23.9 °C20.1 °C79 %1011.5 hPa16.1 kmNE (40°)16.7 km/hPartly Cloudy
2:33 AM24 °C20 °C78 %1011.2 hPa16.1 kmNE (50°)14.8 km/hMostly Cloudy
2:36 AM24 °C20 °C78 %1011.2 hPa16.1 kmNE (50°)14.8 km/hScattered Clouds
2:53 AM24 °C20 °C78 %1011.2 hPa16.1 kmNE (50°)14.8 km/hMostly Cloudy
2:55 AM23.8 °C20.1 °C80 %1011.2 hPa16.1 kmNE (50°)14.8 km/hMostly Cloudy
3:00 AM24 °C20 °C78 %1011.2 hPa16.1 kmNE (40°)18.5 km/hScattered Clouds
3:55 AM23.8 °C19.7 °C78 %1010.8 hPa16.1 kmNE (50°)16.7 km/hClear
4:55 AM23.9 °C19.7 °C77 %1011.2 hPa16.1 kmNE (50°)14.8 km/hScattered Clouds
5:55 AM23.7 °C19.3 °C76 %1011.5 hPa16.1 kmNE (50°)14.8 km/hPartly Cloudy
6:55 AM23.5 °C19.4 °C78 %1011.9 hPa16.1 kmNE (40°)14.8 km/hPartly Cloudy
7:55 AM25.2 °C19.5 °C71 %1012.5 hPa16.1 kmNE (50°)16.7 km/hPartly Cloudy
8:55 AM26.3 °C19.2 °C65 %1013.2 hPa16.1 kmNE (50°)16.7 km/hPartly Cloudy
9:55 AM27 °C19.5 °C63 %1013.2 hPa16.1 kmNNE (30°)20.4 km/hClear
10:55 AM27.5 °C19.6 °C62 %1012.5 hPa16.1 kmNNE (30°)20.4 km/hClear
11:55 AM30 °C19.6 °C53 %1011.9 hPa16.1 kmENE (70°)14.8 km/hPartly Cloudy
12:55 PM30 °C19.6 °C53 %1011.2 hPa16.1 kmNE (50°)16.7 km/hClear
1:55 PM30 °C19.3 °C52 %1010.2 hPa16.1 kmNE (40°)16.7 km/hPartly Cloudy
2:55 PM27.3 °C19.4 °C62 %1009.5 hPa16.1 kmNE (40°)14.8 km/hClear
3:55 PM27.3 °C19.3 °C61 %1009.5 hPa16.1 kmNNE (30°)18.5 km/hClear
4:55 PM27 °C18.2 °C58 %1009.8 hPa16.1 kmNE (40°)16.7 km/hClear
5:55 PM25.4 °C18.1 °C64 %1009.8 hPa16.1 kmNE (50°)16.7 km/hClear
6:55 PM24.8 °C18.2 °C67 %1010.2 hPa16.1 kmNNE (30°)13 km/hClear
7:55 PM24 °C17.4 °C66 %1010.5 hPa16.1 kmNNE (30°)13 km/hClear
8:55 PM24.6 °C18.4 °C68 %1011.2 hPa16.1 kmNNE (20°)16.7 km/hClear
9:55 PM24.4 °C19.2 °C73 %1011.5 hPa16.1 kmNNE (20°)18.5 km/hScattered Clouds
10:55 PM24.5 °C18.6 °C70 %1011.5 hPa16.1 kmNNE (30°)14.8 km/hMostly Cloudy
11:55 PM24.6 °C18.6 °C69 %1011.5 hPa16.1 kmNE (40°)14.8 km/hMostly Cloudy
Hourly data recorded from PGUA, located 0 kilometers away from Merizo, Guam







STORIES FROM OUR PARTNERS